Location: Doverdale
(52.2833°N, 2.2000°W)
Time: 02:25:10
(UTC+00:00)

Cosmos 1844 Rocket - Pass Details

Date: 29 October 2020
Orbit: 823 x 846 km, 71.0° (Epoch: 27 November)

Event Time Altitude Azimuth Distance (km) Brightness Sun altitude
Rises 18:23:16 0° 326° (NW) 3,410 6.3 -15.5°
Reaches altitude 10° 18:26:34 10° 345° (NNW) 2,476 5.3 -16.1°
Maximum altitude 18:30:22 18° 27° (NNE) 1,978 4.4 -16.6°
Enters shadow 18:31:46 16° 45° (NE) 2,053 4.3 -16.8°
